Kuiper-00111

operational
NORAD ID: 65149 Int'l Des: 2025-171 Owner: KUIP Country: US Constellation: kuiper
LEOCIRCULAR

About Kuiper-00111

Description loading...

Live Position

Loading 3D Globe...

Upcoming Passes

Altitude History

Altitude vs Time

uPlot chart will show altitude changes over time

Two-Line Element Set

1 65149U 25171T 25315.28142730 .00005949 00000-0 80775-3 0 9991
2 65149 51.8991 336.6793 0010029 88.7151 271.4960 14.79968184 15146
Epoch: Nov 11, 2025 • Age: 13 hours

Current Status

Altitude 628.6 km
Velocity 7.55 km/s
Sub-Earth Point 51.99°N, 67.64°E
Launch Date Aug 11, 2025
Age 0.2 years
Type internet

Technical Details

Classification Payload
Mass 490.00 kg
Dry Mass 490.00 kg
Total Mass 490.00 kg
Length 1.80 m
Diameter 0.70 m
Span 5.00 m
Shape Box + 2 pan
Manufacturer KUIP
Bus Type Kuiper
Phase Status In Orbit
Owner/State KUIP/US

Large Constellations

Loading constellations...